Simultaneous Nadir Overpasses (SNOs) Predictions

Prediction of SNOs between AQUA and METOP-C Satellite Orbit:

Table of predicted SNOs for the next 14.0 days since TLE Epoch: 11/23/2024
Index Date (AQUA) Time (AQUA) Lat,Lon (AQUA) SZA (AQUA ) Date (METOP-C) Time (METOP-C) Lat,Lon (METOP-C) SZA (METOP-C ) Distance(km) Time Diff (sec)
1 11/23/2024 21:48:29 -75.92, 33.07 83.56 11/23/2024 21:47:55 -75.92, 33.21 83.55 3.92 34
2 11/23/2024 22:37:50 75.95,-159.37 96.48 11/23/2024 22:38:34 75.95,-159.37 96.48 0.20 44
3 11/26/2024 11:28:19 75.90, 8.21 96.92 11/26/2024 11:27:33 75.88, 8.16 96.90 3.15 46
4 11/26/2024 12:17:39 -75.93, 175.79 83.05 11/26/2024 12:18:14 -75.93, 175.65 83.05 3.74 35
5 11/29/2024 01:08:06 -75.90, -16.67 82.63 11/29/2024 01:07:12 -75.89, -16.71 82.65 1.33 54
6 11/29/2024 01:57:27 75.94, 150.87 97.41 11/29/2024 01:57:50 75.96, 150.85 97.44 2.35 23
7 12/01/2024 14:47:52 75.93, -41.64 97.80 12/01/2024 14:46:48 75.91, -41.56 97.78 3.31 64
8 12/01/2024 15:37:12 -75.95, 125.95 82.17 12/01/2024 15:37:29 -75.96, 125.94 82.17 0.58 17
9 12/04/2024 04:27:34 -75.91, -66.45 81.86 12/04/2024 04:26:27 -75.89, -66.52 81.89 2.87 67
10 12/04/2024 05:16:55 75.95, 101.07 98.19 12/04/2024 05:17:05 75.96, 101.04 98.19 0.97 10
11 12/06/2024 18:07:14 75.93, -91.37 98.47 12/06/2024 18:06:01 75.92, -91.32 98.46 1.71 73
12 12/06/2024 18:56:34 -75.95, 76.21 81.51 12/06/2024 18:56:42 -75.97, 76.18 81.49 2.08 8



Historial Predications of SNOs between AQUA and METOP-C
